STARLINK-1107, 44972

Orbit data source: Space-Track

STARLINK-1107, 44972 is a payload satellite owned by SpaceX/Seattle (US) in LEO that was launched on Tue, 07 Jan 2020 UTC via an FALCON 9 launch vehicle from the Air Force Eastern Test Range (AFETR). Payload-class satellites include a variety of spacecraft equipped with specific instruments for various scientific and technological missions. These include communications satellites like Starlink; space stations such as the ISS; scientific satellites like the Hubble; Earth observation satellites from companies like Planet Labs, Umbra, and HawkEye 360; GPS; miniature CubeSats for education and research; and military/defense satellites.

Loading next visibility...
Identifier
44972, 2020-001BL
Orbit
LEO
Country
Flag of USUS
Related business
Manufacturer
SpaceX/Seattle
Mission
Partially operational Commercial Communications
Bus & Motor
STARLINK, Unknown motor
Mass
260 kg wet, ~248 kg dry
Launch date (UTC)
2020-01-07 (6 years ago)
Launch vehicle
FALCON 9
Launch site
Air Force Eastern Test Range (AFETR)
Object type
Payload
Rocket body
Debris
Shape & HBR
Box + 1 Pan, 10.1 m
Radar Cross Section
13.562 m², Large (>1 m²)

Expand to show TLE details & history
Last TLE update: 6 hours ago

TLE from 6 hours ago
0 STARLINK-1107
1 44972U 20001BL  25297.75002315  .00167069  00000-0  15937-2 0  9993
2 44972  53.0074 114.3288 0005114 213.0590 269.4444 15.65728598  5942
Epoch: 2025-10-24T18:00Z
TLE epoch observation values (Epoch: 2025-10-24T18:00:02.000Z)
Latitude
42.51773°
Longitude
-52.45352°
Altitude
375.286 km
Speed
7.69 km/s
True Right ascension
16h 43m 46s
True Declination
42° 20' 12"
Sunlit
Object was in daylight at epoch
Visualization orbit readout
Latitude
Unknown
Longitude
Unknown
Altitude
Unknown
Speed
Unknown
Apparent Right ascension
Unknown
Apparent Declination
Unknown
Sunlit
N/A
Visualization observer readout
Local Sidereal Time
18:55:25
Azimuth
Unknown
Elevation
Unknown
Doppler factor
Unknown
Orbital elements
Apogee altitude
374.881 km
Perigee altitude
367.978 km
Semi-major axis
6,749.566 km
Eccentricity
0.00051
Inclination
53.0074°
RAAN
114.3288°
Arg. of periapsis
213.059°
True anomaly
269.3858°
Mean anomaly
269.4444°
Eccentric anomaly
269.4151°
Mean motion
3.91408 °/min
Orbital period
91.98 mins
BSTAR
0.0015937
Loading maneuver chart data...
Computing Atmospheric mass density...

Documentation

Showing up to 5 results
|